Back to catalog

STARLINK DEPLOYMENT RAIL

AliveSSO
NORAD 47424·DEBRIS·🇺🇸 United States
This satellite name has not been confirmed by official sources yet.

Launched Jan 24, 2021 from Cape Canaveral Space Force Station

Loading…

Next Passes (next 24 hours)

TLE

FreshSource: Space-Track

Epoch: Sep 14, 2026, 21:55 UTC

1 47424U 21006M   26257.91365701  .00004892  00000-0  14991-3 0  9994
2 47424  97.2144 301.5470 0008807 233.8902 126.1527 15.34216099313359

Track STARLINK DEPLOYMENT RAIL in real time with AllMySat

Download on the App Store